Location: Windsor
(43.2292°N, 89.3015°W)
Time: 06:27:26
(UTC+00:00)

DIWATA 2B (PO-101) - Pass Details

Date: 28 June 2022
Orbit: 583 x 599 km, 98.0° (Epoch: 15 August)

Event Time Altitude Azimuth Distance (km) Brightness Sun altitude
Exits shadow 07:40:17 32° 150° (SSE) 1,030 ? -19.6°
Maximum altitude 07:42:08 70° 75° (ENE) 641 ? -19.5°
Drops below altitude 10° 07:46:20 10° 352° (N) 1,949 ? -19.2°
Sets 07:48:32 0° 350° (N) 2,856 ? -19.0°
